Weather in Gornostayevka

Russia / Oryol Oblast     52°23′16″N   37°32′58″E
temp.,
°C
wind,
m/s
gust,
m/s
humid.,
%
clouds,
%
prec.,
mm/h
press.,
hPa
HPBL,
m
19 april, mon
mon1900:00+6e2280100 0.0 101832
03:00+5e2487100 0.3 1017115
06:00+6ese2392100 0.6 1017140
09:00+6e3590100 0.6 1018297
12:00+9se347585 0.1 1017767
15:00+12ene346288 0.7 10161022
18:00+9ne6880100 1.9 1016668
21:00+7ne5891100 2.5 1017513
20 april, tue
tue2000:00+7e469397 3.4 1016393
03:00+7e589389 4.3 1015419
06:00+7e61090100 0.7 1015629
09:00+8e6986100 0.7 1014881
12:00+8e7986100 0.1 1013761
15:00+7ene71189100 0.4 1010696
18:00+6ne91593100 0.9 1006735
21:00+5ne101793100 13.9 10011012
21 april, wed
wed2100:00+8se101692100 4.3 995736
03:00+3sw61195100 7.4 998481
06:00+2wsw71196100 0.2 1001579
09:00+2wsw81396100 0.6 1005745
12:00+5wsw71288100 0.1 10081013
15:00+7wsw6976100 0.1 10101126
18:00+8wsw597498 0.2 1012781
21:00+5ssw348967 0.3 101579
22 april, thu
thu2200:00+5sw349055 0.1 101590
03:00+4ssw369094 0.1 1016126
06:00+3s398991 0.0 1017192
09:00+7ssw488397 0.9 1018424
12:00+10wsw4877100 0.6 10181099
15:00+14sw575756 1.1 10171572
18:00+13ssw486740 1.1 1018372
21:00+9s37835 1.1 1019115
23 april, fri
fri2300:00+8s48885 0.1 1019141
03:00+7s4109278 0.3 1019192
06:00+7s389129 0.1 1019173
09:00+12s610715 0.1 1019570
12:00+15s71054100 0.6 10181763
15:00+16ssw695373 1.2 10161777
18:00+15s6106079 0.8 1015574
21:00+12s5127476 1.6 1015325